Tracking 21473 objects as of 27-Sep-2020
HD Live streaming from Space Station
objects crossing your sky now

FALCONSAT-7

Track FALCONSAT-7 now!
10-day predictions


NORAD ID: 44347
Int'l Code: 2019-036J
Perigee: 305.6 km
Apogee: 680.9 km
Inclination: 28.5 °
Period: 94.3 minutes
Semi major axis: 6864 km
RCS: Unknown
Launch date: June 25, 2019
Source: United States (US)
Launch site: AIR FORCE EASTERN TEST RANGE (AFETR)
aabbcc
Your satellite tracking list
Your tracking list is empty




NASA's NSSDC Master Catalog

Two Line Element Set (TLE):
1 44347U 19036J   20271.46411411  .00049666  00000-0  57616-3 0  9994
2 44347  28.5258  25.9673 0273417  33.9331 327.8438 15.26560055 69658
Source of the keplerian elements: AFSPC